Location: Grand Rapids
(42.9630°N, 85.6680°W)
Time: 01:56:56
(UTC-04:00)

Altair - All Passes

Search period start: 30 May 2024 00:00
Search period end: 09 June 2024 00:00
Orbit: 1502 x 1682 km, 47.2° (Epoch: 29 May)

Date Brightness Start Highest point End Pass type
(mag) Time Alt. Az. Time Alt. Az. Time Alt. Az.
30 May - 06:47:56 10° SSE 06:51:52 13° ESE 06:55:51 10° E daylight
30 May - 08:45:38 10° SSW 08:54:44 50° SE 09:04:10 10° ENE daylight
30 May - 10:49:24 10° WSW 10:59:13 82° NNW 11:09:24 10° ENE daylight
30 May - 12:54:53 10° WNW 13:04:51 71° N 13:15:03 10° E daylight
30 May - 15:00:03 10° WNW 15:10:09 78° SSW 15:20:18 10° SE daylight
30 May - 17:05:37 10° WNW 17:14:01 31° SW 17:22:24 10° S daylight
31 May - 06:24:18 10° SE 06:26:51 11° ESE 06:29:25 10° ESE daylight
31 May - 08:20:38 10° SSW 08:29:35 46° SE 08:38:51 10° ENE daylight
31 May - 10:24:10 10° WSW 10:33:57 84° NNW 10:44:07 10° ENE daylight
31 May - 12:29:36 10° W 12:39:32 70° N 12:49:43 10° E daylight
31 May - 14:34:48 10° WNW 14:44:54 82° SSW 14:55:05 10° ESE daylight
31 May - 16:40:14 10° WNW 16:48:53 34° SW 16:57:33 10° SSE daylight
01 Jun - 07:55:41 10° SSW 08:04:27 43° SE 08:13:32 10° ENE daylight
01 Jun - 09:58:57 10° WSW 10:08:41 87° NNW 10:18:49 10° ENE daylight
01 Jun - 12:04:19 10° W 12:14:13 70° N 12:24:23 10° E daylight
01 Jun - 14:09:33 10° WNW 14:19:39 85° SSW 14:29:51 10° ESE daylight
01 Jun - 16:14:53 10° WNW 16:23:45 37° SW 16:32:38 10° SSE daylight
02 Jun - 07:30:45 10° SSW 07:39:19 40° SE 07:48:11 10° ENE daylight
02 Jun - 09:33:45 10° WSW 09:43:27 90° SSE 09:53:32 10° ENE daylight
02 Jun - 11:39:03 10° W 11:48:54 69° N 11:59:03 10° E daylight
02 Jun - 13:44:18 10° WNW 13:54:23 88° SSW 14:04:37 10° ESE daylight
02 Jun - 15:49:32 10° WNW 15:58:37 40° SW 16:07:42 10° SSE daylight
03 Jun - 07:05:52 10° SSW 07:14:12 36° SE 07:22:50 10° ENE daylight
03 Jun - 09:08:34 10° WSW 09:18:12 86° SSE 09:28:16 10° ENE daylight
03 Jun - 11:13:46 10° W 11:23:36 69° N 11:33:43 10° E daylight
03 Jun - 13:19:04 10° WNW 13:29:07 89° NNE 13:39:21 10° ESE daylight
03 Jun - 15:24:13 10° WNW 15:33:28 43° SW 15:42:44 10° SSE daylight
04 Jun - 06:41:00 10° SSW 06:49:06 33° SE 06:57:28 10° ENE daylight
04 Jun - 08:43:23 10° WSW 08:52:58 83° SSE 09:02:59 10° ENE daylight
04 Jun - 10:48:31 10° W 10:58:17 70° N 11:08:23 10° E daylight
04 Jun - 12:53:49 10° WNW 13:03:51 86° NNE 13:14:05 10° ESE daylight
04 Jun - 14:58:55 10° WNW 15:08:18 46° SW 15:17:45 10° SSE daylight
04 Jun - 17:08:13 10° WSW 17:11:11 12° WSW 17:14:09 10° SW daylight
05 Jun - 06:16:11 10° S 06:24:01 31° SE 06:32:04 10° ENE daylight
05 Jun - 08:18:13 10° SW 08:27:45 79° SSE 08:37:42 10° ENE daylight
05 Jun - 10:23:15 10° W 10:32:59 70° N 10:43:05 10° E daylight
05 Jun - 12:28:35 10° WNW 12:38:35 83° NNE 12:48:48 10° ESE daylight
05 Jun - 14:33:37 10° WNW 14:43:08 49° SW 14:52:43 10° SSE daylight
05 Jun - 16:41:52 10° W 16:46:08 13° WSW 16:50:24 10° SSW daylight
06 Jun - 05:51:25 10° S 05:58:56 28° SE 06:06:39 10° ENE daylight
06 Jun - 07:53:04 10° SW 08:02:32 76° SSE 08:12:26 10° ENE daylight
06 Jun - 09:57:59 10° W 10:07:41 71° N 10:17:45 10° ENE daylight
06 Jun - 12:03:21 10° WNW 12:13:18 81° NNE 12:23:30 10° ESE daylight
06 Jun - 14:08:22 10° WNW 14:17:57 53° SW 14:27:40 10° SSE daylight
06 Jun - 16:15:54 10° W 16:21:04 15° WSW 16:26:15 10° SSW daylight
07 Jun - 05:26:42 10° S 05:33:51 25° SE 05:41:11 10° ENE visible
07 Jun - 07:27:57 10° SW 07:37:20 72° SSE 07:47:09 10° ENE daylight
07 Jun - 09:32:43 10° W 09:42:23 72° N 09:52:26 10° ENE daylight
07 Jun - 11:38:06 10° WNW 11:48:01 78° NNE 11:58:12 10° ESE daylight
07 Jun - 13:43:05 10° WNW 13:52:45 56° SW 14:02:34 10° SE daylight
07 Jun - 15:50:06 10° W 15:56:00 17° SW 16:01:55 10° SSW daylight
08 Jun - 05:02:02 10° S 05:08:47 23° SE 05:15:42 10° E visible
08 Jun - 07:02:50 10° SW 07:12:09 68° SSE 07:21:52 10° ENE daylight
08 Jun - 09:07:28 10° W 09:17:06 73° N 09:27:07 10° ENE daylight
08 Jun - 11:12:51 10° WNW 11:22:44 76° NNE 11:32:53 10° E daylight
08 Jun - 13:17:50 10° WNW 13:27:34 60° SW 13:37:28 10° SE daylight
08 Jun - 15:24:26 10° W 15:30:55 19° SW 15:37:26 10° SSW daylight
